DW8004 Weather Reports


Display with metric or nautical units.
time (UTC)temp
F
wind
direction
speed
MPH
gust
MPH
rain 1hr
in
rain 24hr
in
rain mn
in
humidity
%
barometer
mb
20260903151528 68 188 0.0 0.0 0.00 0.00 0.00 93 1012.7
20260903150008 66 123 0.0 0.0 0.00 0.00 0.00 94 1012.8
20260903144538 65 165 0.0 0.0 0.00 0.00 0.00 95 1013.1
20260903143015 64 165 0.0 0.0 0.00 0.00 0.00 96 1013.2
20260903141524 63 165 0.0 0.0 0.00 0.00 0.00 97 1013.3
20260903140001 63 165 0.0 0.0 0.00 0.00 0.00 97 1013.5
20260903134640 62 167 0.0 0.0 0.00 0.00 0.00 98 1013.3
20260903133013 61 171 0.0 0.0 0.00 0.00 0.00 98 1013.3
20260903131511 61 171 0.0 0.0 0.00 0.00 0.00 98 1013.5
20260903130009 60 82 0.0 0.0 0.00 0.00 0.00 98 1013.6
20260903124610 60 107 0.0 0.0 0.00 0.00 0.00 98 1013.6
20260903123013 60 109 0.0 0.0 0.00 0.00 0.00 98 1013.7
20260903121514 59 109 0.0 0.0 0.00 0.00 0.00 98 1014.0
20260903120038 59 109 0.0 0.0 0.00 0.00 0.00 98 1013.9
20260903114534 60 220 0.0 0.0 0.00 0.00 0.00 98 1014.0
20260903113039 59 220 0.0 0.0 0.00 0.00 0.00 98 1014.0
20260903111552 59 220 0.0 0.0 0.00 0.00 0.00 98 1014.1
20260903110045 59 227 0.0 0.0 0.00 0.00 0.00 98 1014.1
20260903104553 59 241 0.0 0.0 0.00 0.00 0.00 98 1014.0
20260903103049 59 257 0.0 0.0 0.00 0.00 0.00 98 1014.1
20260903101520 59 63 0.0 0.0 0.00 0.00 0.00 97 1014.0
20260903100131 59 85 0.0 0.0 0.00 0.00 0.00 97 1013.9
20260903094602 59 85 0.0 0.0 0.00 0.00 0.00 97 1013.7
20260903093032 59 85 0.0 0.0 0.00 0.00 0.00 97 1013.8
20260903091513 59 85 0.0 0.0 0.00 0.00 0.00 97 1014.0
20260903090029 59 85 0.0 0.0 0.00 0.00 0.00 97 1013.8
20260903084542 59 85 0.0 0.0 0.00 0.00 0.00 97 1014.0
20260903083053 59 100 0.0 0.0 0.00 0.00 0.00 97 1014.2
20260903081549 59 100 0.0 0.0 0.00 0.00 0.00 96 1014.2
20260903080052 59 42 0.0 0.0 0.00 0.00 0.00 96 1014.2
20260903074612 59 41 0.0 0.0 0.00 0.00 0.00 96 1014.4
20260903073049 58 41 0.0 0.0 0.00 0.00 0.00 96 1014.3
20260903071547 58 145 0.0 0.0 0.00 0.00 0.00 96 1014.3
20260903070052 58 60 0.0 0.0 0.00 0.00 0.00 96 1014.5
20260903064559 58 84 0.0 0.0 0.00 0.00 0.00 95 1014.7
20260903063103 58 85 0.0 0.0 0.00 0.00 0.00 95 1014.8
20260903061544 58 83 0.0 0.0 0.00 0.00 0.00 95 1015.0
20260903054553 59 123 0.0 0.0 0.00 0.00 0.00 94 1015.5
20260903053110 59 175 0.0 0.0 0.00 0.00 0.00 93 1015.8
20260903051557 59 144 0.0 0.0 0.00 0.00 0.00 92 1016.1
20260903050044 59 43 0.0 0.0 0.00 0.00 0.00 92 1016.1
20260903044551 59 29 0.0 0.0 0.00 0.00 0.00 91 1016.0
20260903043100 60 57 0.0 0.0 0.00 0.00 0.00 90 1016.1
20260903041605 60 75 0.0 0.0 0.00 0.00 0.00 89 1016.4
20260903040041 60 108 0.0 0.0 0.00 0.00 0.00 89 1016.9
20260903034518 60 108 0.0 0.0 0.00 0.00 0.00 89 1016.7
20260903033049 60 105 0.0 0.0 0.00 0.00 0.00 89 1016.7
20260903031546 60 63 0.0 0.0 0.00 0.00 0.00 90 1016.8
20260903030048 60 87 0.0 0.0 0.00 0.00 0.00 90 1016.9
20260903024546 61 74 0.0 0.0 0.00 0.00 0.00 91 1017.1
20260903023134 61 64 0.0 0.0 0.00 0.00 0.00 92 1017.2
20260903021601 61 84 0.0 0.0 0.00 0.00 0.00 92 1017.6
20260903020051 61 92 0.0 0.0 0.00 0.00 0.00 91 1017.6
20260903014613 61 89 0.0 0.0 0.00 0.00 0.00 91 1018.2
20260903013059 61 59 0.0 0.0 0.00 0.00 0.00 91 1018.3
20260903011525 61 65 0.0 0.0 0.00 0.00 0.00 91 1018.0
20260903010112 61 125 0.0 0.0 0.00 0.00 0.00 92 1018.0
20260903004608 61 30 0.0 0.0 0.00 0.00 0.00 92 1017.9
20260903003109 61 24 0.0 0.0 0.00 0.00 0.00 92 1017.7
20260903001547 61 85 0.0 0.0 0.00 0.00 0.00 91 1017.2
20260903000047 62 73 0.0 0.0 0.00 0.00 0.00 92 1017.5
20260902234511 62 73 0.0 0.0 0.00 0.00 0.00 91 1017.8
20260902233014 62 71 0.0 0.0 0.00 0.00 0.00 90 1017.9
20260902231558 62 71 0.0 0.0 0.00 0.00 0.00 90 1018.0
20260902230058 63 92 0.0 0.0 0.00 0.00 0.00 90 1018.6
20260902224539 63 121 0.0 0.0 0.00 0.00 0.00 89 1018.8
20260902223045 63 13 0.0 0.0 0.00 0.00 0.00 89 1019.1
20260902221537 63 86 0.0 0.0 0.00 0.00 0.00 89 1019.3
20260902220003 63 89 0.0 0.0 0.00 0.00 0.00 89 1019.2
20260902214518 63 89 0.0 0.0 0.00 0.00 0.00 89 1019.4
20260902213104 63 63 0.0 0.0 0.00 0.00 0.00 90 1019.2
20260902211547 63 68 0.0 0.0 0.00 0.00 0.00 90 1019.3
20260902210032 63 107 0.0 0.0 0.00 0.00 0.00 89 1019.1
20260902204553 63 96 0.0 0.0 0.00 0.00 0.00 89 1019.2
20260902203055 63 95 0.0 0.0 0.00 0.00 0.00 89 1019.4
20260902201547 63 125 0.0 0.0 0.00 0.00 0.00 89 1019.1
20260902200044 63 107 0.0 0.0 0.00 0.00 0.00 88 1019.4
20260902194536 63 104 0.0 0.0 0.00 0.00 0.00 88 1019.8
20260902193038 63 90 0.0 0.0 0.00 0.00 0.00 88 1019.8
20260902191539 63 114 0.0 0.0 0.00 0.00 0.00 88 1019.9
20260902190052 63 87 0.0 0.0 0.00 0.00 0.00 89 1020.0
20260902184551 62 94 0.0 0.0 0.00 0.01 0.00 89 1020.0
20260902183036 62 82 0.0 0.0 0.00 0.01 0.00 89 1020.4
20260902181530 62 149 0.0 0.0 0.00 0.01 0.00 89 1020.4
20260902180057 63 55 0.0 0.0 0.00 0.01 0.00 88 1020.0
20260902174544 63 130 0.0 0.0 0.00 0.03 0.00 88 1020.3
20260902173039 63 82 0.0 0.0 0.00 0.03 0.00 88 1020.3
20260902171552 63 139 0.0 0.0 0.00 0.03 0.00 88 1020.4
20260902170041 62 86 0.0 0.0 0.00 0.03 0.00 87 1020.4
20260902164547 62 109 0.0 0.0 0.00 0.03 0.00 85 1020.7
20260902163043 62 244 0.0 0.0 0.00 0.03 0.00 85 1020.7
20260902161510 62 78 0.0 0.0 0.00 0.03 0.00 85 1020.7
20260902160116 61 232 0.0 0.0 0.00 0.03 0.00 87 1020.9
20260902154543 61 143 0.0 0.0 0.00 0.11 0.00 87 1021.0
20260902153044 61 117 0.0 0.0 0.00 0.11 0.00 89 1021.2